Date String (YYYY-MM-DD hh:mm:ss) UTC,Instrument flags,Ambient pressure (hPa),Sample flow (lpm),Bypass flow (lpm),Sample temperature (°C),Ambient temperature (°C),ASC tube jacket temperature (°C),LED temperature (°C),Box temperature (°C),Sample RH (%),Span deviation,Mass concentration (μg/m³),Mass concentration (μg/m³),Mass concentration (μg/m³)
DateTimeUTC,F1_M11,P_M11,Q1_M11,Q2_M11,T1_M11,T2_M11,T3_M11,T4_M11,T5_M11,U1_M11,ZSPAN_M11,X0_M11,X2_M11,X1_M11
2022-02-15 14:00:00,,0816.3,4.99,0.00,22.2,21.6,00.0,31.3,24.0,06.0,0000.0,0002.93,0001.72,0001.29
2022-02-15 14:01:00,,0816.2,5.01,0.00,22.2,21.6,00.0,31.3,24.0,05.7,0000.0,0003.01,0001.71,0001.28
2022-02-15 14:02:00,,0816.3,5.00,0.00,22.3,21.6,00.0,31.3,24.0,05.6,0000.0,0003.01,0001.71,0001.28
2022-02-15 14:03:00,,0816.2,4.99,0.00,22.3,21.6,00.0,31.3,24.0,05.5,0000.0,0003.63,0001.72,0001.29
2022-02-15 14:04:00,,0816.2,5.01,0.00,22.3,21.6,00.0,31.3,24.0,05.4,0000.0,0004.23,0001.70,0001.28
2022-02-15 14:05:00,,0816.2,5.00,0.00,22.3,21.6,00.0,31.3,24.0,05.4,0000.0,0004.30,0001.72,0001.30
2022-02-15 14:06:00,,0816.2,4.99,0.00,22.3,21.6,00.0,31.3,24.0,05.3,0000.0,0004.25,0001.71,0001.31
2022-02-15 14:07:00,,0816.2,5.00,0.00,22.3,21.6,00.0,31.3,24.0,05.4,0000.0,0003.90,0001.64,0001.31
2022-02-15 14:08:00,,0816.2,5.00,0.00,22.3,21.6,00.0,31.3,24.0,05.3,0000.0,0003.81,0001.65,0001.32
2022-02-15 14:09:00,,0816.2,5.00,0.00,22.3,21.6,00.0,31.3,24.1,05.4,0000.0,0003.74,0001.63,0001.33
2022-02-15 14:10:00,,0816.2,4.99,0.00,22.3,21.6,00.0,31.3,24.1,05.3,0000.0,0003.62,0001.62,0001.32
2022-02-15 14:11:00,,0816.3,5.01,0.00,22.3,21.6,00.0,31.3,24.1,05.4,0000.0,0003.68,0001.65,0001.32
2022-02-15 14:12:00,,0816.2,5.01,0.00,22.3,21.6,00.0,31.3,24.1,05.6,0000.0,0003.53,0001.65,0001.34
2022-02-15 14:13:00,,0816.2,4.99,0.00,22.3,21.7,00.0,31.3,24.1,05.8,0000.0,0003.62,0001.69,0001.35
2022-02-15 14:14:00,,0816.1,5.01,0.00,22.3,21.6,00.0,31.3,24.1,06.0,0000.0,0003.12,0001.73,0001.36
2022-02-15 14:15:00,,0816.2,4.98,0.00,22.3,21.6,00.0,31.3,24.1,06.2,0000.0,0002.52,0001.75,0001.37
2022-02-15 14:16:00,,0816.2,5.00,0.00,22.3,21.7,00.0,31.3,24.1,06.1,0000.0,0002.50,0001.77,0001.37
2022-02-15 14:17:00,,0816.2,5.01,0.00,22.3,21.7,00.0,31.3,24.1,05.9,0000.0,0002.62,0001.84,0001.38
2022-02-15 14:18:00,,0816.2,4.98,0.00,22.3,21.7,00.0,31.3,24.1,05.6,0000.0,0002.71,0001.84,0001.38
2022-02-15 14:19:00,,0816.3,5.01,0.00,22.3,21.7,00.0,31.3,24.1,05.8,0000.0,0002.74,0001.86,0001.38
2022-02-15 14:20:00,,0816.2,4.99,0.00,22.3,21.7,00.0,31.3,24.1,05.8,0000.0,0002.78,0001.88,0001.39
2022-02-15 14:21:00,,0816.2,5.01,0.00,22.3,21.7,00.0,31.3,24.1,05.7,0000.0,0002.82,0001.91,0001.40
2022-02-15 14:22:00,,0816.2,5.00,0.00,22.4,21.7,00.0,31.3,24.1,05.7,0000.0,0002.74,0001.88,0001.40
2022-02-15 14:23:00,,0816.3,5.01,0.00,22.4,21.7,00.0,31.3,24.2,05.8,0000.0,0002.84,0001.92,0001.40
2022-02-15 14:24:00,,0816.3,4.99,0.00,22.4,21.7,00.0,31.3,24.1,05.9,0000.0,0002.81,0001.91,0001.40
2022-02-15 14:25:00,,0816.3,5.00,0.00,22.4,21.7,00.0,31.3,24.1,06.0,0000.0,0002.92,0001.86,0001.40
2022-02-15 14:26:00,,0816.2,5.00,0.00,22.4,21.7,00.0,31.3,24.2,06.2,0000.0,0003.75,0001.83,0001.39
2022-02-15 14:27:00,,0816.2,5.00,0.00,22.4,21.7,00.0,31.3,24.2,06.1,0000.0,0004.61,0001.87,0001.39
2022-02-15 14:28:00,,0816.2,4.98,0.00,22.4,21.7,00.0,31.3,24.2,06.1,0000.0,0004.83,0001.83,0001.39
2022-02-15 14:29:00,,0816.2,4.99,0.00,22.4,21.7,00.0,31.3,24.2,05.9,0000.0,0004.87,0001.86,0001.39
2022-02-15 14:30:00,,0816.2,5.01,0.00,22.4,21.7,00.0,31.4,24.2,05.9,0000.0,0004.83,0001.85,0001.39
2022-02-15 14:31:00,,0816.3,5.00,0.00,22.4,21.7,00.0,31.4,24.2,05.9,0000.0,0004.89,0001.87,0001.38
2022-02-15 14:32:00,,0816.3,5.00,0.00,22.4,21.7,00.0,31.4,24.2,05.5,0000.0,0004.87,0001.85,0001.37
2022-02-15 14:33:00,,0816.3,5.00,0.00,22.4,21.7,00.0,31.4,24.2,05.3,0000.0,0004.94,0001.87,0001.38
2022-02-15 14:34:00,,0816.3,4.99,0.00,22.4,21.7,00.0,31.4,24.2,05.3,0000.0,0004.96,0001.89,0001.38
2022-02-15 14:35:00,,0816.3,5.01,0.00,22.4,21.7,00.0,31.4,24.2,05.6,0000.0,0005.10,0001.89,0001.37
2022-02-15 14:36:00,,0816.3,4.99,0.00,22.4,21.7,00.0,31.4,24.2,05.5,0000.0,0005.20,0001.87,0001.36
2022-02-15 14:37:00,,0816.3,5.02,0.00,22.4,21.7,00.0,31.4,24.2,05.5,0000.0,0004.44,0001.86,0001.36
2022-02-15 14:38:00,,0816.3,4.99,0.00,22.4,21.7,00.0,31.4,24.2,05.9,0000.0,0003.99,0001.83,0001.35
2022-02-15 14:39:00,,0816.3,5.00,0.00,22.4,21.7,00.0,31.4,24.2,05.8,0000.0,0003.53,0001.83,0001.34
2022-02-15 14:40:00,,0816.2,5.01,0.00,22.4,21.7,00.0,31.4,24.2,05.8,0000.0,0003.41,0001.80,0001.34
2022-02-15 14:41:00,,0816.2,4.99,0.00,22.4,21.7,00.0,31.4,24.2,05.8,0000.0,0003.51,0001.83,0001.35
2022-02-15 14:42:00,,0816.2,5.00,0.00,22.4,21.7,00.0,31.4,24.2,05.9,0000.0,0003.63,0001.86,0001.36
2022-02-15 14:43:00,,0816.2,5.01,0.00,22.4,21.7,00.0,31.4,24.3,05.9,0000.0,0003.71,0001.86,0001.37
2022-02-15 14:44:00,,0816.3,4.99,0.00,22.4,21.7,00.0,31.4,24.3,05.8,0000.0,0003.73,0001.87,0001.37
2022-02-15 14:45:00,,0816.4,5.02,0.00,22.5,21.7,00.0,31.4,24.3,05.8,0000.0,0003.87,0001.85,0001.37
2022-02-15 14:46:00,,0816.4,4.99,0.00,22.4,21.7,00.0,31.4,24.3,06.0,0000.0,0004.04,0001.85,0001.38
2022-02-15 14:47:00,,0816.3,5.01,0.00,22.4,21.7,00.0,31.4,24.2,06.3,0000.0,0003.61,0001.86,0001.40
2022-02-15 14:48:00,,0816.4,5.00,0.00,22.4,21.7,00.0,31.4,24.2,06.3,0000.0,0003.65,0001.93,0001.42
2022-02-15 14:49:00,,0816.3,5.00,0.00,22.4,21.7,00.0,31.4,24.1,05.7,0000.0,0003.32,0001.89,0001.41
2022-02-15 14:50:00,,0816.2,4.99,0.00,22.4,21.7,00.0,31.4,24.2,05.4,0000.0,0003.34,0001.90,0001.41
2022-02-15 14:51:00,,0816.2,5.01,0.00,22.4,21.7,00.0,31.4,24.2,05.2,0000.0,0003.47,0001.92,0001.42
2022-02-15 14:52:00,,0816.2,4.99,0.00,22.4,21.7,00.0,31.4,24.2,05.4,0000.0,0003.40,0001.88,0001.40
2022-02-15 14:53:00,,0816.3,5.01,0.00,22.5,21.7,00.0,31.4,24.2,05.8,0000.0,0003.26,0001.85,0001.40
2022-02-15 14:54:00,,0816.2,4.98,0.00,22.5,21.7,00.0,31.4,24.3,05.5,0000.0,0003.16,0001.87,0001.41
2022-02-15 14:55:00,,0816.2,5.01,0.00,22.5,21.8,00.0,31.4,24.3,05.7,0000.0,0003.20,0001.88,0001.42
2022-02-15 14:56:00,,0816.2,5.00,0.00,22.5,21.7,00.0,31.4,24.3,05.6,0000.0,0003.05,0001.87,0001.41
2022-02-15 14:57:00,,0816.3,4.98,0.00,22.5,21.7,00.0,31.4,24.3,05.6,0000.0,0003.12,0001.87,0001.41
2022-02-15 14:58:00,,0816.3,5.01,0.00,22.5,21.8,00.0,31.4,24.3,05.7,0000.0,0003.46,0001.89,0001.40
2022-02-15 14:59:00,,0816.4,4.99,0.00,22.5,21.8,00.0,31.5,24.3,05.4,0000.0,0003.31,0001.83,0001.38
